QPF
0.02 0.03 0.04 0.04 0.05 0.04 0.04 0.06 0.07 0.06 0.06 0.05 0.05 0.05 0.04 0.04 0.04 0.03 0.03 0.04 0.03 0.03 0.04 0.06 0.07 0.09 0.11 0.13 0.13 0.12 0.09 0.06 0.04 0.03 0.02 0.03 0.04 0.03 0.03 0.05 0.06 0.06 0.03
0.02 0.02 0.03 0.04 0.06 0.04 0.04 0.04 0.05 0.06 0.05 0.06 0.06 0.05 0.05 0.06 0.06 0.05 0.03 0.04 0.04 0.04 0.05 0.06 0.07 0.09 0.14 0.18 0.17 0.16 0.14 0.09 0.06 0.04 0.03 0.03 0.03 0.03 0.02 0.03 0.04 0.06 0.06
0.01 0.01 0.03 0.04 0.05 0.05 0.04 0.04 0.04 0.04 0.05 0.07 0.07 0.06 0.06 0.07 0.06 0.07 0.05 0.05 0.06 0.07 0.07 0.07 0.09 0.13 0.23 0.26 0.15 0.14 0.21 0.16 0.08 0.03 0.03 0.03 0.03 0.04 0.04 0.04 0.03 0.04 0.08
0.01 0.01 0.02 0.04 0.06 0.08 0.06 0.05 0.04 0.04 0.05 0.06 0.07 0.07 0.07 0.08 0.10 0.10 0.08 0.07 0.06 0.07 0.07 0.06 0.07 0.12 0.28 0.31 0.13 0.12 0.24 0.24 0.10 0.04 0.03 0.02 0.02 0.04 0.05 0.05 0.05 0.04 0.06
0.01 0.01 0.02 0.05 0.06 0.08 0.05 0.05 0.04 0.05 0.06 0.08 0.07 0.07 0.07 0.08 0.11 0.13 0.11 0.09 0.07 0.06 0.05 0.05 0.07 0.10 0.24 0.40 0.30 0.29 0.33 0.25 0.10 0.06 0.04 0.03 0.05 0.08 0.07 0.07 0.07 0.06 0.06
0.01 0.01 0.02 0.05 0.07 0.07 0.05 0.05 0.05 0.06 0.07 0.07 0.06 0.06 0.07 0.08 0.09 0.11 0.11 0.09 0.07 0.05 0.05 0.06 0.06 0.07 0.14 0.32 0.39 0.39 0.34 0.19 0.08 0.06 0.05 0.03 0.07 0.09 0.07 0.09 0.09 0.08 0.09
0.01 0.01 0.02 0.06 0.07 0.06 0.08 0.08 0.07 0.07 0.08 0.07 0.05 0.06 0.09 0.09 0.09 0.09 0.07 0.06 0.08 0.07 0.05 0.04 0.05 0.05 0.08 0.16 0.25 0.26 0.19 0.09 0.05 0.05 0.05 0.06 0.08 0.08 0.08 0.08 0.08 0.10 0.13
0.02 0.02 0.02 0.08 0.08 0.05 0.09 0.16 0.14 0.12 0.12 0.09 0.07 0.08 0.11 0.10 0.09 0.08 0.06 0.05 0.06 0.05 0.04 0.04 0.04 0.04 0.05 0.08 0.12 0.13 0.10 0.05 0.04 0.04 0.05 0.08 0.08 0.06 0.06 0.05 0.07 0.08 0.09
0.02 0.03 0.03 0.11 0.14 0.10 0.12 0.18 0.20 0.18 0.15 0.13 0.11 0.09 0.10 0.09 0.09 0.07 0.06 0.04 0.05 0.05 0.04 0.04 0.05 0.05 0.05 0.05 0.06 0.07 0.05 0.03 0.03 0.04 0.04 0.07 0.06 0.04 0.05 0.05 0.06 0.07 0.10
0.02 0.02 0.03 0.08 0.16 0.18 0.14 0.13 0.16 0.23 0.24 0.18 0.14 0.11 0.10 0.09 0.09 0.07 0.06 0.05 0.05 0.05 0.04 0.04 0.05 0.06 0.05 0.04 0.05 0.04 0.02 0.02 0.04 0.03 0.05 0.07 0.07 0.06 0.05 0.05 0.05 0.06 0.07
0.01 0.01 0.02 0.04 0.08 0.10 0.09 0.09 0.12 0.15 0.16 0.11 0.07 0.07 0.06 0.07 0.07 0.05 0.05 0.06 0.05 0.04 0.03 0.03 0.05 0.06 0.05 0.04 0.05 0.05 0.03 0.03 0.04 0.03 0.05 0.07 0.09 0.10 0.07 0.06 0.06 0.06 0.06
0.02 0.02 0.02 0.04 0.05 0.05 0.05 0.06 0.08 0.10 0.10 0.09 0.07 0.07 0.06 0.05 0.05 0.04 0.05 0.05 0.04 0.03 0.02 0.02 0.02 0.04 0.04 0.05 0.04 0.03 0.04 0.03 0.03 0.05 0.05 0.06 0.07 0.09 0.10 0.08 0.08 0.06 0.06
0.01 0.01 0.01 0.02 0.03 0.03 0.04 0.03 0.04 0.05 0.06 0.05 0.05 0.05 0.05 0.05 0.04 0.04 0.05 0.05 0.05 0.03 0.02 0.02 0.02 0.02 0.02 0.04 0.03 0.02 0.03 0.03 0.05 0.07 0.06 0.06 0.06 0.06 0.09 0.08 0.06 0.05 0.05
0.02 0.02 0.01 0.01 0.01 0.02 0.03 0.04 0.04 0.04 0.04 0.04 0.04 0.04 0.05 0.07 0.07 0.06 0.05 0.05 0.05 0.05 0.04 0.03 0.02 0.01 0.02 0.02 0.02 0.02 0.01 0.02 0.04 0.05 0.05 0.05 0.06 0.09 0.10 0.08 0.06 0.06 0.05
0.01 0.01 0.01 0.01 0.01 0.01 0.01 0.01 0.02 0.02 0.03 0.03 0.04 0.03 0.04 0.05 0.07 0.08 0.09 0.08 0.08 0.06 0.07 0.05 0.02 0.02 0.02 0.02 0.02 0.02 0.02 0.03 0.02 0.02 0.02 0.03 0.04 0.09 0.11 0.09 0.07 0.07 0.07
0.01 0.01 0.01 0.01 0.00 0.01 0.01 0.01 0.01 0.01 0.01 0.02 0.03 0.04 0.04 0.04 0.04 0.05 0.09 0.11 0.08 0.06 0.06 0.06 0.05 0.04 0.04 0.04 0.05 0.04 0.03 0.03 0.02 0.01 0.02 0.03 0.03 0.03 0.05 0.06 0.06 0.06 0.08
0.01 0.01 0.01 0.01 0.01 0.01 0.01 0.01 0.01 0.01 0.01 0.02 0.03 0.03 0.03 0.03 0.04 0.05 0.06 0.09 0.08 0.06 0.06 0.06 0.05 0.05 0.04 0.04 0.05 0.04 0.03 0.02 0.03 0.02 0.02 0.03 0.02 0.02 0.02 0.03 0.03 0.03 0.06
0.01 0.01 0.01 0.00 0.00 0.01 0.01 0.02 0.02 0.02 0.02 0.02 0.02 0.03 0.03 0.03 0.04 0.05 0.05 0.05 0.05 0.06 0.07 0.07 0.06 0.04 0.04 0.04 0.03 0.03 0.03 0.02 0.02 0.01 0.02 0.02 0.03 0.02 0.02 0.02 0.03 0.02 0.03
0.02 0.01 0.00 0.00 0.00 0.01 0.01 0.02 0.02 0.02 0.01 0.02 0.01 0.02 0.03 0.03 0.04 0.05 0.04 0.04 0.05 0.06 0.06 0.05 0.05 0.04 0.03 0.03 0.02 0.03 0.03 0.03 0.02 0.01 0.01 0.02 0.03 0.03 0.02 0.02 0.02 0.01 0.02
0.02 0.02 0.01 0.01 0.01 0.01 0.02 0.03 0.02 0.03 0.02 0.02 0.02 0.02 0.03 0.03 0.04 0.05 0.05 0.04 0.04 0.04 0.04 0.03 0.03 0.04 0.04 0.03 0.03 0.02 0.02 0.02 0.02 0.01 0.01 0.01 0.02 0.01 0.01 0.01 0.01 0.01 0.02
0.02 0.03 0.03 0.02 0.01 0.01 0.02 0.02 0.03 0.03 0.02 0.02 0.02 0.02 0.02 0.03 0.03 0.04 0.03 0.03 0.03 0.03 0.03 0.02 0.02 0.03 0.04 0.03 0.02 0.02 0.02 0.01 0.02 0.01 0.01 0.01 0.01 0.01 0.01 0.01 0.01 0.01 0.01
0.02 0.03 0.03 0.02 0.01 0.01 0.01 0.01 0.02 0.03 0.02 0.02 0.02 0.02 0.01 0.01 0.02 0.01 0.02 0.02 0.03 0.03 0.03 0.02 0.02 0.02 0.06 0.05 0.03 0.02 0.02 0.02 0.01 0.01 0.02 0.01 0.01 0.01 0.01 0.01 0.01 0.01 0.01
0.01 0.02 0.01 0.02 0.01 0.02 0.02 0.02 0.03 0.04 0.04 0.03 0.02 0.02 0.01 0.01 0.01 0.01 0.01 0.02 0.04 0.04 0.03 0.02 0.02 0.02 0.03 0.05 0.04 0.03 0.02 0.02 0.01 0.01 0.01 0.01 0.00 0.00 0.01 0.01 0.01 0.01 0.01
0.01 0.01 0.01 0.01 0.01 0.01 0.02 0.02 0.02 0.03 0.03 0.03 0.01 0.01 0.01 0.01 0.01 0.01 0.01 0.02 0.05 0.07 0.07 0.04 0.03 0.02 0.02 0.04 0.05 0.04 0.03 0.02 0.02 0.01 0.01 0.01 0.01 0.00 0.00 0.00 0.01 0.01 0.01
0.00 0.00 0.01 0.01 0.02 0.01 0.01 0.01 0.02 0.02 0.03 0.03 0.02 0.01 0.01 0.01 0.01 0.01 0.02 0.03 0.05 0.08 0.10 0.10 0.05 0.03 0.02 0.02 0.03 0.05 0.05 0.03 0.01 0.01 0.01 0.01 0.01 0.01 0.00 0.00 0.00 0.01 0.01
0.00 0.00 0.01 0.01 0.02 0.02 0.02 0.02 0.02 0.02 0.03 0.03 0.03 0.02 0.01 0.01 0.02 0.01 0.02 0.02 0.04 0.08 0.11 0.13 0.11 0.06 0.03 0.02 0.02 0.03 0.05 0.05 0.02 0.02 0.02 0.01 0.01 0.00 0.01 0.00 0.00 0.00 0.01
MSLP
1012.59 1012.53 1012.62 1012.84 1013.13 1013.41 1013.63 1013.75 1013.77 1013.73 1013.67 1013.64 1013.69 1013.83 1014.04 1014.28 1014.49 1014.65 1014.72 1014.72 1014.67 1014.61 1014.57 1014.58 1014.62 1014.68 1014.73 1014.73 1014.65 1014.52 1014.32 1014.11 1013.90 1013.73 1013.61 1013.52 1013.46 1013.40 1013.31 1013.18 1013.00 1012.79 1012.57
1012.56 1012.58 1012.74 1013.02 1013.35 1013.66 1013.90 1014.02 1014.05 1014.00 1013.94 1013.92 1013.99 1014.15 1014.38 1014.65 1014.88 1015.06 1015.15 1015.15 1015.11 1015.05 1015.01 1015.01 1015.06 1015.12 1015.16 1015.14 1015.06 1014.90 1014.69 1014.46 1014.25 1014.09 1013.99 1013.94 1013.91 1013.88 1013.81 1013.70 1013.52 1013.30 1013.05
1012.54 1012.64 1012.86 1013.19 1013.55 1013.89 1014.14 1014.28 1014.32 1014.28 1014.23 1014.23 1014.32 1014.50 1014.74 1015.02 1015.27 1015.46 1015.55 1015.57 1015.54 1015.49 1015.47 1015.49 1015.53 1015.60 1015.63 1015.60 1015.50 1015.32 1015.09 1014.85 1014.64 1014.49 1014.40 1014.38 1014.39 1014.39 1014.35 1014.25 1014.08 1013.86 1013.59
1012.54 1012.70 1012.98 1013.34 1013.73 1014.09 1014.37 1014.53 1014.59 1014.58 1014.56 1014.58 1014.68 1014.86 1015.12 1015.39 1015.64 1015.83 1015.94 1015.97 1015.96 1015.94 1015.95 1015.98 1016.05 1016.12 1016.15 1016.11 1015.99 1015.79 1015.54 1015.29 1015.07 1014.92 1014.86 1014.85 1014.89 1014.92 1014.90 1014.82 1014.66 1014.44 1014.18
1012.56 1012.77 1013.07 1013.46 1013.88 1014.27 1014.57 1014.77 1014.86 1014.89 1014.90 1014.95 1015.06 1015.25 1015.49 1015.76 1016.00 1016.18 1016.30 1016.35 1016.37 1016.39 1016.43 1016.51 1016.60 1016.68 1016.70 1016.65 1016.51 1016.30 1016.03 1015.77 1015.55 1015.41 1015.35 1015.36 1015.41 1015.45 1015.45 1015.38 1015.24 1015.02 1014.77
1012.62 1012.84 1013.17 1013.57 1014.01 1014.42 1014.76 1015.00 1015.14 1015.22 1015.27 1015.35 1015.47 1015.65 1015.88 1016.12 1016.35 1016.52 1016.65 1016.72 1016.78 1016.85 1016.93 1017.04 1017.16 1017.25 1017.27 1017.21 1017.06 1016.83 1016.56 1016.29 1016.07 1015.94 1015.89 1015.90 1015.95 1016.00 1015.99 1015.93 1015.78 1015.58 1015.33
1012.72 1012.94 1013.26 1013.67 1014.12 1014.55 1014.93 1015.22 1015.42 1015.56 1015.66 1015.76 1015.90 1016.08 1016.29 1016.50 1016.71 1016.88 1017.01 1017.11 1017.20 1017.31 1017.43 1017.57 1017.71 1017.81 1017.83 1017.76 1017.60 1017.37 1017.10 1016.84 1016.63 1016.51 1016.46 1016.49 1016.53 1016.56 1016.55 1016.46 1016.31 1016.10 1015.86
1012.87 1013.07 1013.38 1013.77 1014.22 1014.68 1015.09 1015.43 1015.69 1015.88 1016.03 1016.18 1016.33 1016.51 1016.70 1016.90 1017.09 1017.25 1017.39 1017.51 1017.64 1017.78 1017.94 1018.10 1018.24 1018.33 1018.35 1018.27 1018.11 1017.88 1017.62 1017.39 1017.21 1017.11 1017.09 1017.11 1017.15 1017.17 1017.12 1017.01 1016.84 1016.61 1016.36
1013.06 1013.23 1013.51 1013.88 1014.32 1014.78 1015.22 1015.60 1015.91 1016.16 1016.37 1016.55 1016.73 1016.91 1017.11 1017.30 1017.48 1017.65 1017.80 1017.95 1018.10 1018.26 1018.43 1018.60 1018.73 1018.81 1018.81 1018.72 1018.56 1018.34 1018.12 1017.93 1017.79 1017.73 1017.74 1017.78 1017.81 1017.81 1017.74 1017.60 1017.39 1017.13 1016.87
1013.28 1013.41 1013.66 1014.00 1014.41 1014.86 1015.30 1015.71 1016.06 1016.36 1016.62 1016.84 1017.05 1017.26 1017.47 1017.68 1017.87 1018.05 1018.23 1018.39 1018.56 1018.74 1018.91 1019.06 1019.17 1019.22 1019.20 1019.10 1018.94 1018.76 1018.58 1018.44 1018.36 1018.36 1018.40 1018.47 1018.51 1018.50 1018.41 1018.23 1017.98 1017.69 1017.40
1013.50 1013.61 1013.81 1014.12 1014.50 1014.92 1015.35 1015.76 1016.14 1016.47 1016.76 1017.03 1017.28 1017.53 1017.77 1018.00 1018.22 1018.43 1018.63 1018.83 1019.01 1019.19 1019.36 1019.49 1019.57 1019.59 1019.54 1019.43 1019.29 1019.13 1019.00 1018.92 1018.91 1018.97 1019.06 1019.16 1019.21 1019.20 1019.09 1018.89 1018.62 1018.31 1017.98
1013.70 1013.80 1013.98 1014.24 1014.58 1014.96 1015.36 1015.76 1016.13 1016.48 1016.80 1017.11 1017.40 1017.68 1017.96 1018.24 1018.50 1018.75 1018.99 1019.22 1019.43 1019.61 1019.77 1019.88 1019.93 1019.93 1019.86 1019.74 1019.61 1019.49 1019.41 1019.39 1019.44 1019.55 1019.69 1019.82 1019.89 1019.89 1019.78 1019.57 1019.29 1018.96 1018.61
1013.88 1013.99 1014.15 1014.38 1014.67 1015.01 1015.37 1015.73 1016.09 1016.44 1016.77 1017.10 1017.42 1017.74 1018.06 1018.38 1018.69 1018.99 1019.28 1019.54 1019.78 1019.98 1020.14 1020.24 1020.28 1020.26 1020.18 1020.08 1019.96 1019.87 1019.83 1019.86 1019.96 1020.11 1020.28 1020.43 1020.52 1020.53 1020.42 1020.22 1019.95 1019.62 1019.28
1014.03 1014.16 1014.33 1014.54 1014.80 1015.09 1015.40 1015.73 1016.06 1016.38 1016.72 1017.05 1017.39 1017.73 1018.09 1018.44 1018.80 1019.15 1019.48 1019.79 1020.06 1020.29 1020.47 1020.59 1020.64 1020.62 1020.56 1020.47 1020.38 1020.32 1020.32 1020.37 1020.49 1020.66 1020.83 1020.99 1021.08 1021.09 1021.00 1020.82 1020.57 1020.27 1019.95
1014.14 1014.32 1014.51 1014.72 1014.96 1015.22 1015.50 1015.79 1016.08 1016.39 1016.70 1017.03 1017.36 1017.72 1018.09 1018.47 1018.85 1019.24 1019.62 1019.97 1020.29 1020.57 1020.78 1020.93 1021.01 1021.03 1021.00 1020.95 1020.89 1020.87 1020.88 1020.95 1021.07 1021.22 1021.37 1021.50 1021.57 1021.58 1021.49 1021.34 1021.12 1020.86 1020.59
1014.20 1014.44 1014.67 1014.91 1015.15 1015.40 1015.66 1015.93 1016.21 1016.49 1016.78 1017.09 1017.41 1017.75 1018.11 1018.49 1018.89 1019.30 1019.71 1020.11 1020.48 1020.80 1021.08 1021.28 1021.42 1021.50 1021.53 1021.53 1021.52 1021.52 1021.54 1021.61 1021.70 1021.81 1021.91 1021.99 1022.03 1022.00 1021.92 1021.78 1021.60 1021.39 1021.17
1014.19 1014.49 1014.77 1015.05 1015.33 1015.60 1015.88 1016.15 1016.42 1016.70 1016.97 1017.25 1017.54 1017.85 1018.19 1018.55 1018.94 1019.36 1019.79 1020.22 1020.64 1021.03 1021.36 1021.65 1021.86 1022.01 1022.11 1022.18 1022.21 1022.25 1022.29 1022.33 1022.39 1022.44 1022.48 1022.49 1022.47 1022.41 1022.31 1022.17 1022.02 1021.86 1021.69
1014.09 1014.43 1014.77 1015.10 1015.43 1015.75 1016.07 1016.38 1016.68 1016.97 1017.24 1017.50 1017.77 1018.04 1018.34 1018.67 1019.04 1019.44 1019.88 1020.34 1020.80 1021.24 1021.65 1022.00 1022.30 1022.54 1022.71 1022.85 1022.94 1023.01 1023.06 1023.10 1023.12 1023.11 1023.09 1023.03 1022.94 1022.83 1022.70 1022.56 1022.43 1022.30 1022.17
1013.86 1014.23 1014.61 1014.99 1015.39 1015.78 1016.17 1016.55 1016.90 1017.23 1017.52 1017.78 1018.02 1018.27 1018.53 1018.82 1019.16 1019.55 1019.98 1020.46 1020.95 1021.44 1021.90 1022.33 1022.70 1023.01 1023.27 1023.47 1023.62 1023.73 1023.80 1023.84 1023.83 1023.79 1023.71 1023.60 1023.45 1023.29 1023.13 1022.98 1022.85 1022.73 1022.63
1013.51 1013.88 1014.27 1014.70 1015.16 1015.63 1016.11 1016.57 1017.01 1017.39 1017.73 1018.01 1018.25 1018.48 1018.71 1018.97 1019.29 1019.66 1020.09 1020.57 1021.09 1021.61 1022.12 1022.60 1023.03 1023.40 1023.72 1023.97 1024.18 1024.33 1024.43 1024.49 1024.48 1024.43 1024.32 1024.17 1024.00 1023.81 1023.62 1023.45 1023.31 1023.20 1023.11
1013.05 1013.38 1013.77 1014.22 1014.72 1015.27 1015.84 1016.40 1016.93 1017.40 1017.79 1018.12 1018.38 1018.61 1018.83 1019.08 1019.37 1019.74 1020.17 1020.66 1021.19 1021.74 1022.28 1022.78 1023.25 1023.66 1024.01 1024.31 1024.56 1024.75 1024.89 1024.97 1025.00 1024.96 1024.87 1024.72 1024.54 1024.34 1024.15 1023.97 1023.82 1023.70 1023.61
1012.55 1012.81 1013.15 1013.59 1014.12 1014.72 1015.37 1016.02 1016.64 1017.20 1017.67 1018.05 1018.35 1018.61 1018.84 1019.09 1019.39 1019.76 1020.20 1020.70 1021.24 1021.80 1022.35 1022.87 1023.34 1023.76 1024.13 1024.45 1024.72 1024.95 1025.13 1025.26 1025.34 1025.35 1025.30 1025.20 1025.05 1024.87 1024.69 1024.51 1024.36 1024.23 1024.13
1012.07 1012.23 1012.50 1012.90 1013.42 1014.05 1014.75 1015.47 1016.18 1016.82 1017.37 1017.81 1018.16 1018.45 1018.71 1018.99 1019.30 1019.69 1020.14 1020.66 1021.21 1021.78 1022.33 1022.84 1023.31 1023.72 1024.08 1024.40 1024.68 1024.94 1025.16 1025.34 1025.48 1025.57 1025.59 1025.55 1025.46 1025.34 1025.19 1025.04 1024.90 1024.77 1024.67
1011.70 1011.74 1011.91 1012.24 1012.72 1013.35 1014.07 1014.84 1015.60 1016.31 1016.92 1017.42 1017.82 1018.15 1018.45 1018.76 1019.11 1019.52 1020.01 1020.54 1021.11 1021.68 1022.23 1022.73 1023.17 1023.56 1023.90 1024.21 1024.49 1024.76 1025.01 1025.25 1025.45 1025.61 1025.72 1025.76 1025.75 1025.70 1025.61 1025.50 1025.39 1025.29 1025.20
1011.47 1011.39 1011.45 1011.69 1012.11 1012.70 1013.42 1014.20 1015.00 1015.74 1016.39 1016.94 1017.38 1017.75 1018.09 1018.44 1018.82 1019.27 1019.78 1020.34 1020.93 1021.51 1022.05 1022.54 1022.97 1023.33 1023.65 1023.93 1024.21 1024.48 1024.76 1025.03 1025.29 1025.52 1025.71 1025.84 1025.92 1025.94 1025.92 1025.87 1025.80 1025.74 1025.67
1011.40 1011.20 1011.15 1011.29 1011.64 1012.18 1012.86 1013.63 1014.42 1015.17 1015.85 1016.41 1016.89 1017.29 1017.66 1018.03 1018.45 1018.93 1019.48 1020.07 1020.68 1021.27 1021.83 1022.31 1022.73 1023.07 1023.37 1023.64 1023.91 1024.18 1024.47 1024.77 1025.07 1025.36 1025.61 1025.81 1025.96 1026.06 1026.11 1026.12 1026.12 1026.10 1026.09
Thickness
5766 5767 5764 5765 5766 5767 5768 5768 5769 5769 5770 5770 5771 5771 5771 5772 5772 5772 5772 5773 5773 5773 5774 5774 5774 5774 5774 5774 5774 5774 5774 5774 5774 5774 5774 5774 5774 5774 5774 5774 5774 5776 5774
5767 5766 5763 5763 5764 5765 5765 5766 5767 5767 5767 5768 5768 5769 5769 5769 5769 5769 5770 5770 5771 5771 5771 5771 5771 5771 5772 5772 5772 5771 5771 5771 5771 5772 5772 5772 5772 5772 5771 5771 5771 5773 5771
5765 5765 5762 5761 5762 5762 5763 5764 5764 5764 5764 5765 5765 5766 5766 5767 5767 5767 5767 5767 5768 5768 5768 5768 5768 5769 5769 5769 5770 5770 5769 5768 5769 5769 5771 5773 5771 5769 5768 5768 5768 5768 5768
5763 5762 5761 5759 5759 5760 5760 5761 5761 5761 5761 5762 5763 5763 5763 5764 5764 5764 5764 5764 5765 5765 5765 5765 5765 5766 5766 5766 5769 5769 5768 5765 5765 5767 5770 5771 5770 5766 5765 5765 5765 5765 5765
5760 5759 5757 5756 5756 5757 5757 5757 5758 5758 5758 5759 5759 5760 5760 5760 5760 5760 5760 5760 5761 5761 5761 5762 5762 5762 5762 5763 5766 5766 5764 5762 5763 5765 5766 5766 5765 5762 5761 5761 5761 5761 5761
5757 5756 5754 5753 5753 5754 5754 5754 5754 5755 5755 5755 5755 5756 5756 5756 5756 5756 5756 5756 5757 5757 5757 5758 5758 5759 5759 5759 5761 5761 5759 5759 5761 5762 5762 5762 5761 5758 5758 5757 5757 5757 5757
5754 5753 5752 5749 5750 5750 5751 5751 5751 5751 5751 5751 5751 5751 5751 5751 5751 5751 5752 5752 5753 5753 5753 5754 5754 5755 5755 5754 5755 5755 5755 5755 5758 5758 5758 5757 5755 5754 5753 5753 5753 5753 5753
5751 5751 5749 5746 5748 5748 5747 5747 5747 5747 5747 5746 5746 5746 5747 5747 5747 5747 5747 5748 5748 5748 5749 5749 5750 5750 5750 5750 5750 5750 5751 5751 5754 5755 5754 5752 5750 5749 5749 5749 5749 5749 5749
5748 5748 5747 5746 5746 5744 5743 5742 5743 5742 5742 5742 5742 5742 5742 5742 5742 5742 5743 5743 5744 5744 5744 5745 5745 5745 5745 5745 5745 5746 5746 5747 5750 5750 5750 5747 5745 5745 5744 5745 5744 5745 5745
5745 5744 5744 5744 5743 5743 5740 5738 5737 5737 5737 5737 5737 5737 5737 5738 5738 5738 5739 5738 5739 5739 5739 5739 5740 5740 5740 5740 5740 5740 5741 5743 5746 5746 5745 5742 5740 5740 5740 5741 5741 5741 5741
5740 5740 5740 5740 5739 5739 5738 5734 5734 5733 5732 5733 5733 5733 5734 5736 5736 5735 5733 5733 5733 5734 5734 5734 5735 5735 5736 5736 5736 5737 5738 5741 5740 5740 5738 5735 5735 5735 5736 5736 5736 5737 5737
5734 5736 5737 5737 5736 5736 5734 5732 5732 5731 5730 5731 5731 5730 5730 5731 5730 5729 5727 5728 5728 5729 5729 5729 5730 5731 5733 5735 5734 5733 5736 5736 5736 5734 5731 5729 5730 5730 5731 5731 5731 5732 5732
5732 5731 5732 5732 5732 5732 5731 5729 5728 5727 5726 5726 5726 5726 5726 5726 5725 5725 5725 5725 5725 5725 5727 5726 5728 5729 5731 5730 5730 5731 5731 5731 5730 5728 5725 5723 5724 5725 5725 5725 5726 5726 5726
5729 5728 5729 5729 5729 5728 5728 5726 5725 5724 5723 5722 5721 5721 5721 5721 5721 5721 5721 5720 5721 5721 5721 5722 5722 5724 5726 5726 5726 5727 5726 5725 5724 5722 5719 5717 5717 5718 5719 5719 5719 5720 5720
5726 5725 5725 5725 5725 5725 5723 5722 5721 5720 5720 5719 5716 5716 5716 5716 5716 5716 5716 5714 5715 5715 5716 5716 5718 5719 5719 5720 5720 5720 5720 5719 5718 5716 5713 5711 5711 5712 5712 5712 5713 5713 5714
5723 5722 5722 5722 5721 5721 5720 5718 5717 5716 5713 5714 5712 5711 5712 5711 5712 5711 5711 5710 5710 5710 5711 5712 5712 5712 5713 5713 5713 5713 5713 5712 5711 5711 5708 5706 5704 5705 5705 5705 5706 5707 5707
5721 5720 5719 5718 5717 5717 5716 5714 5712 5711 5711 5709 5708 5708 5707 5707 5707 5707 5706 5705 5705 5706 5706 5707 5707 5707 5707 5707 5707 5706 5706 5705 5705 5704 5703 5702 5701 5699 5698 5698 5699 5699 5700
5718 5717 5715 5714 5713 5712 5711 5709 5708 5707 5706 5705 5704 5703 5703 5702 5702 5701 5701 5701 5700 5700 5701 5701 5701 5700 5701 5701 5701 5700 5700 5698 5699 5698 5698 5697 5695 5695 5693 5692 5692 5692 5693
5714 5713 5711 5710 5708 5707 5706 5704 5703 5702 5700 5700 5699 5698 5698 5698 5697 5696 5695 5695 5695 5695 5695 5695 5695 5695 5694 5694 5695 5694 5694 5692 5692 5692 5692 5691 5690 5689 5688 5686 5685 5685 5686
5709 5708 5707 5706 5704 5703 5701 5700 5698 5697 5696 5695 5693 5693 5692 5692 5692 5691 5690 5690 5689 5689 5688 5688 5688 5688 5688 5688 5690 5689 5688 5687 5686 5685 5686 5685 5684 5683 5682 5681 5681 5680 5679
5704 5703 5701 5700 5699 5698 5696 5695 5692 5691 5691 5690 5689 5687 5687 5687 5686 5686 5685 5685 5683 5683 5682 5683 5682 5682 5682 5684 5683 5682 5682 5682 5682 5680 5679 5679 5677 5676 5676 5675 5675 5674 5673
5699 5698 5697 5696 5694 5693 5691 5691 5689 5687 5686 5685 5683 5682 5681 5681 5681 5681 5681 5679 5678 5677 5676 5676 5675 5676 5677 5678 5678 5677 5675 5675 5674 5675 5673 5671 5671 5670 5670 5669 5669 5667 5667
5694 5693 5692 5691 5690 5688 5686 5685 5683 5681 5681 5680 5678 5676 5675 5675 5675 5674 5674 5674 5674 5673 5672 5671 5670 5670 5671 5672 5674 5673 5670 5669 5668 5668 5667 5666 5664 5664 5664 5663 5663 5662 5661
5691 5690 5689 5687 5686 5684 5683 5681 5679 5677 5675 5674 5674 5672 5671 5670 5669 5668 5668 5668 5668 5668 5666 5666 5666 5666 5665 5665 5666 5666 5667 5665 5662 5660 5660 5660 5658 5657 5657 5657 5656 5655 5654
5689 5686 5685 5683 5681 5680 5679 5676 5675 5674 5672 5671 5669 5667 5667 5665 5664 5663 5663 5663 5662 5661 5661 5660 5660 5660 5660 5660 5659 5659 5659 5658 5660 5656 5653 5652 5652 5652 5650 5649 5649 5649 5647
5685 5682 5680 5678 5676 5675 5674 5673 5671 5669 5667 5665 5663 5662 5661 5660 5658 5657 5657 5656 5656 5655 5655 5654 5654 5653 5654 5653 5653 5653 5652 5651 5651 5650 5648 5646 5645 5644 5644 5643 5643 5642 5641